Regional Weather Roundup
Issued by NWS

Home | Current Version | Previous Version | Graphics & Text | Print | Product List | Glossary On
Versions: 1 2 3 4 5 6 7 8 9 10 11 12 13 14 15 16 17 18 19 20 21 22 23 24 25 26 27
000
ASUS45 KSLC 191210
RWRUT

UTAH REGIONAL WEATHER ROUNDUP
NATIONAL WEATHER SERVICE SALT LAKE CITY UT
500 AM MST SUN NOV 19 2017

UTZ001>011-023>025-191300-

NORTHERN UTAH

CITY           SKY/WX    TMP DP  RH WIND       PRES   REMARKS
BRIGHAM CITY   MOCLDY    27  24  89 CALM      30.30S
HILL AFB       MOCLDY    25  17  69 E17       30.27F WCI  12
LOGAN          MOCLDY    25  21  85 CALM      30.30F
OGDEN          PTCLDY    27  19  72 S8        30.28F WCI  19
SALT LAKE CITY MOCLDY    30  24  78 SE3       30.29F
TOOELE VALLEY  MOCLDY    27  23  86 S10       30.29F WCI  17
WENDOVER       CLOUDY    24  19  81 CALM      30.29F
HEBER CITY       N/A     18  16  93 CALM      30.28F
WEST JORDAN    MOCLDY    27  24  89 CALM      30.28F

$$

UTZ011>015-024>027-191300-

CENTRAL/NORTHEAST UTAH

CITY           SKY/WX    TMP DP  RH WIND       PRES   REMARKS
PROVO AIRPORT  MOCLDY    23  19  85 SE7       30.30F WCI  15
MOAB/CANYONLAN MOCLDY    23   5  46 W3        30.35F
DELTA          CLOUDY    16  14  93 E5        30.28F WCI   9
PRICE          MOCLDY    20   6  55 N6        30.32F WCI  12
ROOSEVELT      CLOUDY    19  12  73 CALM      30.37S
VERNAL         CLOUDY    19  10  68 W3        30.34F

$$

UTZ013>016-019>022-027-191300-

SOUTHERN UTAH

CITY           SKY/WX    TMP DP  RH WIND       PRES   REMARKS
BRYCE CANYON   MOCLDY     9   3  77 W6        30.32F WCI  -1
CEDAR CITY     MOCLDY    19  16  88 CALM      30.25F
MILFORD        CLOUDY    14  12  92 S6        30.27F WCI   5
ST GEORGE      MOSUNNY   35   6  29 CALM      30.28F
HANKSVILLE     MOCLDY    16   0  48 CALM      30.39F
BLANDING         N/A     19   6  58 NW3       30.40F

$$

REGIONAL REPORTS     COLORADO/ARIZONA

CITY           SKY/WX    TMP DP  RH WIND       PRES   REMARKS
CRAIG, CO      CLOUDY     9   4  80 SW5       30.33F WCI   1
GRAND JUNCTION CLOUDY    15  13  91 E3        30.37S
RIFLE, CO      CLOUDY    16  12  84 CALM      30.39F
MONTROSE, CO   CLOUDY    18  14  84 SE8       30.39F WCI   8
CORTEZ, CO     CLOUDY    11   7  84 E7        30.34F WCI   0
COLORADO CITY    N/A     41   7  24 NE8       30.29S
PAGE, AZ       MOCLDY    31  11  43 NW3       30.33S
GRAND CANYON   MOCLDY    22  -2  35 E3        30.27F
KINGMAN, AZ    PTCLDY    31   6  35 VRB3      30.18F
FLAGSTAFF, AZ  MOCLDY    11   0  61 CALM      30.28F

$$

REGIONAL REPORTS    NEVADA/IDAHO/WYOMING

CITY           SKY/WX    TMP DP  RH WIND       PRES   REMARKS
LAS VEGAS, NV  MOCLDY    42  11  28 S5        30.19F
ELY, NY        MOCLDY    12   3  67 S14       30.24F WCI  -3
ELKO, NV       PTCLDY    21  16  81 NE6       30.24S WCI  13
POCATELLO, ID  CLOUDY    23  21  92 CALM      30.26F
BURLEY, ID     PTCLDY    25  20  81 NE3       30.21F
FORT BRIDGER,    N/A     16  11  78 CALM      30.28S
EVANSTON, WY   CLOUDY    18  14  84 S5        30.24F WCI  11
ROCK SPRINGS,  CLOUDY    14   8  77 SW3       30.25S

$$




USA.gov is the U.S. government's official web portal to all federal, state and local government web resources and services.